Regional Weather Roundup
Issued by NWS

Home | Current Version | Previous Version | Graphics & Text | Print | Product List | Glossary On
Versions: 1 2 3 4 5 6 7 8 9 10 11 12 13 14 15 16 17 18 19 20 21 22 23 24 25 26 27
000
ASUS45 KCYS 151210
RWRWY

WYOMING REGIONAL WEATHER ROUNDUP
NATIONAL WEATHER SERVICE CHEYENNE WY
500 AM MST FRI DEC 15 2017

NOTE:  "FAIR" INDICATES FEW OR NO CLOUDS BELOW 12,000 FEET
WITH NO SIGNIFICANT WEATHER AND/OR OBSTRUCTIONS TO VISIBILITY.

WYZ001-151300-
YELLOWSTONE NATIONAL PARK

CITY           SKY/WX    TMP DP  RH WIND       PRES   REMARKS
LK YELLOWSTONE   N/A     11   8  88 CALM      30.27S
6HR MIN TEMP:   2; 6HR MAX TEMP:  11;

W YELLOWSTONE  NOT AVBL

$$
WYZ002>013-054>058-071-098>099-151300-
NORTHERN WYOMING

CITY           SKY/WX    TMP DP  RH WIND       PRES   REMARKS
JACKSON        CLOUDY    11   7  84 CALM      30.31F
CODY           FAIR      37  10  32 W10G24    29.99F WCI  30
GREYBULL       FAIR      17  14  88 CALM      30.05F
6HR MIN TEMP:  15; 6HR MAX TEMP:  26;

WORLAND        FAIR      13  11  92 S7        30.05F WCI   3
6HR MIN TEMP:  12; 6HR MAX TEMP:  22;

SHERIDAN       FAIR      20  13  74 CALM      29.87F
6HR MIN TEMP:  17; 6HR MAX TEMP:  28;

BUFFALO        FAIR      35   2  24 S9        29.90F WCI  28
6HR MIN TEMP:  25; 6HR MAX TEMP:  40;

GILLETTE       FAIR      32  15  49 SW16      29.90F WCI  21
6HR MIN TEMP:  28; 6HR MAX TEMP:  33;

HULETT         FAIR      32  16  51 SW13      29.88F WCI  22
NEWCASTLE      FAIR      19  14  79 NE5       29.95F WCI  13

$$
WYZ014>020-022>026-101>103-151300-
CENTRAL WYOMING

CITY           SKY/WX    TMP DP  RH WIND       PRES   REMARKS
BIG PINEY      FAIR       8   3  80 NE5       30.21F WCI   0
6HR MIN TEMP:   5; 6HR MAX TEMP:  12;

PINEDALE       FAIR      14   9  79 NW3       30.19F
DUBOIS         FAIR      30   3  31 NW15G22   30.11F WCI  19
LANDER         FAIR      18  12  77 SW5       30.06F WCI  11
6HR MIN TEMP:  13; 6HR MAX TEMP:  22;

RIVERTON       FAIR      17  13  84 SW5       30.07F WCI  10
6HR MIN TEMP:  15; 6HR MAX TEMP:  20;

CASPER         FAIR      28  16  60 SW22G31   30.04S WCI  14
6HR MIN TEMP:  28; 6HR MAX TEMP:  30;

DOUGLAS        FAIR      19  14  81 CALM      30.00F
6HR MIN TEMP:  19; 6HR MAX TEMP:  26;


$$
WYZ021-027>030-104>119-151300-
SOUTHERN WYOMING

CITY           SKY/WX    TMP DP  RH WIND       PRES   REMARKS
EVANSTON       FAIR      20  15  81 S8        30.29F WCI  10
6HR MIN TEMP:  19; 6HR MAX TEMP:  24;

FORT BRIDGER   FAIR      29   7  39 W15       30.29S WCI  18
ROCK SPRINGS   FAIR      30  11  45 W9G20     30.21S WCI  22
6HR MIN TEMP:  25; 6HR MAX TEMP:  30;

DIXON          FAIR      14  10  85 E6        30.30S WCI   5
RAWLINS        FAIR      29  14  53 SW17G24   30.16F WCI  17
6HR MIN TEMP:  23; 6HR MAX TEMP:  29;

SARATOGA       FAIR      19  10  68 SE15      30.20F WCI   5
LARAMIE        FAIR      24  10  55 W16G28    30.09F WCI  11
6HR MIN TEMP:   9; 6HR MAX TEMP:  25;

CHEYENNE       FAIR      31  12  45 W21       30.02F WCI  18
6HR MIN TEMP:  21; 6HR MAX TEMP:  33;

TORRINGTON     FAIR      21  14  74 CALM      29.99F
6HR MIN TEMP:   9; 6HR MAX TEMP:  21;

PINE BLUFFS    FAIR      23  12  63 W8        30.03F WCI  14

$$




USA.gov is the U.S. government's official web portal to all federal, state and local government web resources and services.